This is the latest recevied weather packets stored in our database for station/object N8BAP. If no packets are shown the sender has not sent any weather packets the latest 10 day(s).
| Time | Temp. | Humidity | Pressure | Rain* | Wind** | Luminosity | Snow |
|---|---|---|---|---|---|---|---|
| 1777721202 | 4.44° C | 76% | 1021.9 hPa | 0 mm | - | 41 W/m² | - |
| 1777720899 | 4.44° C | 77% | 1022.1 hPa | 0 mm | - | 44 W/m² | - |
| 1777720596 | 3.89° C | 79% | 1022.2 hPa | 0 mm | - | 42 W/m² | - |
| 1777720294 | 3.33° C | 82% | 1022.2 hPa | 0 mm | - | 36 W/m² | - |
| 1777719992 | 2.78° C | 85% | 1021.7 hPa | 0 mm | - | 28 W/m² | - |
| 1777719689 | 2.78° C | 86% | 1022.1 hPa | 0 mm | - | 21 W/m² | - |
| 1777719387 | 2.78° C | 87% | 1022.1 hPa | 0 mm | - | 15 W/m² | - |
| 1777719084 | 2.78° C | 88% | 1022.2 hPa | 0 mm | - | 11 W/m² | - |
| 1777718781 | 2.78° C | 89% | 1022.1 hPa | 0 mm | - | 6 W/m² | - |
| 1777718478 | 2.78° C | 89% | 1021.9 hPa | 0 mm | - | 3 W/m² | - |
| 1777718175 | 2.78° C | 89% | 1022.2 hPa | 0 mm | - | 0 W/m² | - |
| 1777717874 | 2.78° C | 89% | 1022.1 hPa | 0 mm | - | 0 W/m² | - |
| 1777717570 | 2.78° C | 88% | 1022.1 hPa | 0 mm | - | 0 W/m² | - |
| 1777717267 | 2.78° C | 87% | 1022.1 hPa | 0 mm | - | 0 W/m² | - |
| 1777716965 | 2.78° C | 87% | 1022.2 hPa | 0 mm | - | 0 W/m² | - |
| 1777716663 | 2.78° C | 87% | 1022.1 hPa | 0 mm | - | 0 W/m² | - |
| 1777716361 | 2.78° C | 88% | 1022.2 hPa | 0 mm | - | 0 W/m² | - |
| 1777716059 | 2.78° C | 89% | 1022.1 hPa | 0 mm | - | 0 W/m² | - |
| 1777715756 | 2.78° C | 90% | 1022.1 hPa | 0 mm | - | 0 W/m² | - |
| 1777715454 | 2.78° C | 90% | 1022.1 hPa | 0 mm | - | 0 W/m² | - |
| 1777715150 | 2.22° C | 90% | 1021.9 hPa | 0 mm | - | 0 W/m² | - |
| 1777714849 | 2.22° C | 90% | 1021.7 hPa | 0 mm | - | 0 W/m² | - |
| 1777714547 | 1.67° C | 90% | 1022.1 hPa | 0 mm | - | 0 W/m² | - |
| 1777714244 | 1.67° C | 89% | 1021.8 hPa | 0 mm | - | 0 W/m² | - |
| 1777713942 | 1.67° C | 88% | 1022.1 hPa | 0 mm | - | 0 W/m² | - |
* Rain latest hour (hover to see other rain measurements)
** Current wind speed in m/s (hover to see current wind gust speed)